Pasco, WA
on Thursday, December 6, 2012

Thursday
Previous Day Next Day
Daily Summary
 ActualAverageRecord
Temperature
Mean Temperature °F 34°F  
Max Temperature 49°F 41°F 58°F (1999)
Min Temperature 31°F 28°F 7°F (2013)
Degree Days
Heating Degree Days 25 31  
Month to date heating degree days 99 179  
Since 1 July heating degree days 1196 1408  
Cooling Degree Days 0 0  
Month to date cooling degree days 0 0  
Year to date cooling degree days 788 710  
Moisture
Dew Point 33°F   
Average Humidity 71    
Maximum Humidity 82    
Minimum Humidity 60    
Precipitation
Precipitation 0.00 in in 0.65 in (1963)
Month to date precipitation 0.27  
Year to date precipitation 8.83  
Snow
Snow 0.00 in in in ()
Snow Depth 0.00 in   
Wind
Wind Speed 9 mph   
Max Wind Speed 29 mph   
Max Gust Speed 35 mph   
Visibility 10 miles   
Events     

Key: T is trace of precipitation, MM is missing value
Source: NWS Daily Summary
Time(PST)TemperatureDew PointHumidity Pressure Visibility Wind DirectionWind SpeedGust SpeedPrecipitationEvents Conditions
12:53 AM 39.0°F 32.0°F 76% 30.18 in 10.0 miles SSW 5.8 mph - N/A   Clear
1:53 AM 36.0°F 30.0°F 79% 30.19 in 10.0 miles Calm Calm - N/A   Clear
2:53 AM 35.1°F 30.0°F 82% 30.19 in 10.0 miles South 3.5 mph - N/A   Clear
3:53 AM 35.1°F 30.0°F 82% 30.18 in 10.0 miles South 3.5 mph - N/A   Clear
4:53 AM 35.1°F 30.9°F 85% 30.17 in 10.0 miles SW 10.4 mph - N/A   Clear
5:53 AM 37.0°F 32.0°F 82% 30.17 in 10.0 miles South 5.8 mph - N/A   Clear
6:53 AM 37.0°F 32.0°F 82% 30.16 in 10.0 miles South 4.6 mph - N/A   Mostly Cloudy
7:53 AM 39.0°F 32.0°F 76% 30.16 in 10.0 miles Calm Calm - N/A   Overcast
8:53 AM 41.0°F 33.1°F 73% 30.15 in 10.0 miles WSW 4.6 mph - N/A   Partly Cloudy
9:53 AM 42.1°F 33.1°F 70% 30.15 in 10.0 miles SW 13.8 mph - N/A   Partly Cloudy
10:53 AM 42.1°F 34.0°F 73% 30.15 in 10.0 miles SW 15.0 mph 21.9 mph N/A   Overcast
11:53 AM 45.0°F 35.1°F 68% 30.12 in 10.0 miles SW 16.1 mph 25.3 mph N/A   Mostly Cloudy
12:53 PM 46.9°F 34.0°F 61% 30.10 in 10.0 miles SW 18.4 mph 27.6 mph N/A   Mostly Cloudy
1:53 PM 46.9°F 33.1°F 59% 30.07 in 10.0 miles SW 21.9 mph 28.8 mph N/A   Mostly Cloudy
2:53 PM 46.9°F 34.0°F 61% 30.06 in 10.0 miles SW 18.4 mph 25.3 mph N/A   Overcast
3:53 PM 46.9°F 33.1°F 59% 30.06 in 10.0 miles SW 25.3 mph 34.5 mph N/A   Scattered Clouds
4:53 PM 46.0°F 33.1°F 61% 30.06 in 10.0 miles SW 15.0 mph - N/A   Mostly Cloudy
5:53 PM 46.0°F 34.0°F 63% 30.06 in 10.0 miles WSW 15.0 mph 24.2 mph N/A   Mostly Cloudy
6:53 PM 45.0°F 34.0°F 65% 30.06 in 10.0 miles SSW 15.0 mph - N/A   Overcast
7:53 PM 46.9°F 34.0°F 61% 30.06 in 10.0 miles SW 20.7 mph 26.5 mph N/A   Overcast
8:53 PM 46.0°F 34.0°F 63% 30.08 in 10.0 miles SW 18.4 mph 24.2 mph N/A   Scattered Clouds
9:53 PM 45.0°F 35.1°F 68% 30.08 in 10.0 miles WSW 15.0 mph - N/A   Clear
10:53 PM 44.1°F 35.1°F 71% 30.10 in 10.0 miles WSW 17.3 mph - N/A   Clear
11:53 PM 43.0°F 35.1°F 74% 30.10 in 10.0 miles WSW 12.7 mph - N/A   Clear
Moon Phase
Dec. 06 Dec. 13 Dec. 20 Dec. 28 Jan. 04
Sunrise:07:25 AM (PST) Moon Rise:No Moon Rise/
Sunset:04:10 PM (PST) Moon Set:12:00 PM (PST)12/6

Copyright © 2014 The Weather Underground, Inc.